This demonstration page uses our WeatherBlox Daily Observations layout. Learn more.

Left ArrowRight Arrow

38.83388, -104.82136

Hourly Observations for April 4, 2017

Temp ( °F °C ) Dew Point ( °F °C ) Humidity (%) Winds ( mph kmh ) Pressure ( in mb ) Visibility ( mi km ) Precip ( " mm )
12:03 am 00:03 Cloudy with Heavy Snow 32 0 30 -1 93 93 NNW 13 20 29.83 1010 3 5 0.00 0.00
12:23 am 00:23 Cloudy with Heavy Snow 32 0 30 -1 93 93 NNW 15 24 29.83 1010 0 0 0.00 0.00
12:43 am 00:43 Mostly Cloudy with Heavy Snow 30 -1 30 -1 100 100 NNW 13 20 29.85 1011 0 0 0.00 0.00
12:53 am 00:53 Mostly Cloudy with Heavy Snow 30 -1 30 -1 100 100 NW 13 20 29.85 1011 3 5 0.00 0.00
12:58 am 00:58 Mostly Cloudy with Heavy Snow 30 -1 30 -1.3 98 98 NNW 12 19 29.49 999 3 5 0.03 0.76
1:18 am 01:18 Cloudy with Heavy Snow 30 -1 30 -1 100 100 NW 10 17 29.85 1011 3 5 0.00 0.00
1:38 am 01:38 Mostly Cloudy with Heavy Snow 30 -1 30 -1 100 100 NW 10 17 29.85 1011 3 5 0.00 0.00
1:43 am 01:43 Mostly Cloudy with Heavy Snow 30 -1 30 -1 100 100 NNW 12 19 29.85 1011 3 5 0.00 0.00
1:48 am 01:48 Mostly Cloudy with Heavy Snow 30 -1 30 -1 100 100 NW 12 19 29.85 1011 3 5 0.00 0.00
1:58 am 01:58 Mostly Cloudy with Heavy Snow 30 -1 29 -1.4 97 97 NW 13 20 29.47 998 3 5 0.05 1.27
2:38 am 02:38 Mostly Cloudy with Heavy Snow 30 -1 28 -2 93 93 NNW 10 17 29.85 1011 3 5 0.00 0.00
2:58 am 02:58 Mostly Cloudy with Heavy Snow 30 -1.2 29 -1.6 97 97 NW 12 19 29.46 998 3 5 0.03 0.76
3:08 am 03:08 Mostly Cloudy with Heavy Snow 30 -1 28 -2 93 93 NW 7 11 29.80 1009 0 0 0.00 0.00
3:23 am 03:23 Mostly Cloudy with Heavy Snow 30 -1 28 -2 93 93 N 12 19 29.85 1011 3 5 0.00 0.00
3:58 am 03:58 Mostly Cloudy with Heavy Snow 29 -1.8 28 -2 99 99 NNW 17 28 29.47 998 3 5 0.04 1.02
4:58 am 04:58 Mostly Cloudy with Heavy Snow 28 -2.5 27 -2.6 99 99 N 8 13 29.49 999 0 0 0.02 0.51
5:08 am 05:08 Mostly Cloudy with Heavy Snow 28 -2 27 -3 93 93 NW 15 24 29.88 1012 5 8 0.00 0.00
5:18 am 05:18 Cloudy with Heavy Snow 28 -2 27 -3 93 93 NNW 12 19 29.83 1010 3 5 0.00 0.00
5:43 am 05:43 Mostly Cloudy with Snow 28 -2 27 -3 93 93 NW 13 20 29.88 1012 5 8 0.00 0.00
5:48 am 05:48 Mostly Cloudy with Snow 28 -2 27 -3 93 93 NW 10 17 29.88 1012 5 8 0.00 0.00
5:58 am 05:58 Mostly Cloudy with Snow 28 -2.2 27 -3 94 94 NNW 12 19 29.49 999 5 8 0.02 0.51
6:03 am 06:03 Mostly Cloudy with Snow 28 -2 27 -3 93 93 NNW 12 19 29.88 1012 3 5 0.00 0.00
6:08 am 06:08 Mostly Cloudy with Snow 28 -2 27 -3 93 93 NNW 12 19 29.88 1012 3 5 0.00 0.00
6:43 am 06:43 Mostly Cloudy with Snow 28 -2 27 -3 93 93 N 9 15 29.88 1012 3 5 0.00 0.00
6:58 am 06:58 Mostly Cloudy with Snow 28 -2.4 27 -2.9 96 96 NNW 16 26 29.51 999 1 1 0.01 0.25
7:08 am 07:08 Mostly Cloudy with Snow 28 -2 27 -3 93 93 NNW 16 26 29.88 1012 7 11 0.00 0.00
7:23 am 07:23 Cloudy with Light Snow 28 -2 25 -4 86 86 NW 18 30 29.91 1013 7 11 0.00 0.00
7:28 am 07:28 Windy with Snow Likely 28 -2 25 -4 86 86 NW 20 31 29.91 1013 7 11 0.00 0.00
7:43 am 07:43 Cloudy with Light Snow 28 -2 25 -4 86 86 NW 18 30 29.91 1013 1 2 0.00 0.00
7:58 am 07:58 Cloudy with Light Snow 28 -2.3 26 -3.6 91 91 NNW 14 22 29.57 1002 1 1 0.01 0.25
8:58 am 08:58 Cloudy with Snow 28 -2 25 -3.9 87 87 NNW 14 22 29.60 1002 1 2 0.00 0.00
9:13 am 09:13 Cloudy with Light Snow 28 -2 25 -4 86 86 NW 15 24 29.91 1013 3 4 0.00 0.00
9:33 am 09:33 Cloudy with Light Snow 28 -2 27 -3 93 93 NNW 14 22 29.91 1013 1 2 0.00 0.00
9:38 am 09:38 Cloudy with Light Snow 28 -2 27 -3 93 93 NNW 12 19 29.91 1013 1 2 0.00 0.00
9:53 am 09:53 Cloudy with Light Snow 28 -2 27 -3 93 93 NNW 10 17 29.91 1013 1 1 0.00 0.00
10:18 am 10:18 Cloudy with Snow 28 -2 27 -3 93 93 NNW 15 24 29.94 1014 1 1 0.00 0.00
10:53 am 10:53 Cloudy with Light Snow 28 -2 27 -3 93 93 NNW 15 24 29.94 1014 1 1 0.00 0.00
10:58 am 10:58 Cloudy with Light Snow 29 -1.8 26 -3.1 91 91 N 15 24 29.66 1005 1 1 0.06 1.52
11:13 am 11:13 Cloudy with Snow 28 -2 27 -3 93 93 N 15 24 29.94 1014 1 1 0.00 0.00
11:43 am 11:43 Cloudy with Light Snow 30 -1 27 -3 86 86 NNW 17 28 29.91 1013 1 2 0.00 0.00
11:58 am 11:58 Cloudy with Light Rain/Snow 31 -0.8 26 -3.1 85 85 NNW 16 26 29.66 1005 2 3 0.09 2.29
12:45 pm 12:45 Mostly Cloudy 32 0 27 -3 80 80 N 18 30 29.88 1012 10 16 0.00 0.00
12:58 pm 12:58 Mostly Cloudy 32 0 26 -3.2 79 79 N 17 28 29.63 1004 10 16 0.09 2.29
1:03 pm 13:03 Mostly Cloudy 34 1 27 -3 75 75 N 15 24 29.85 1011 10 16 0.00 0.00
1:58 pm 13:58 Mostly Sunny 33 0.7 25 -3.9 72 72 N 17 28 29.65 1004 10 16 0.00 0.00
2:33 pm 14:33 Mostly Cloudy 34 1 25 -4 70 70 N 16 26 29.85 1011 10 16 0.00 0.00
2:58 pm 14:58 Mostly Cloudy 33 0.8 26 -3.4 74 74 N 15 24 29.65 1004 10 16 0.00 0.00
3:38 pm 15:38 Mostly Cloudy 34 1 25 -4 70 70 N 14 22 29.91 1013 10 16 0.00 0.00
3:58 pm 15:58 Mostly Cloudy 33 0.6 26 -3.6 74 74 N 13 20 29.67 1005 10 16 0.00 0.00
4:58 pm 16:58 Mostly Cloudy 32 0.2 25 -3.8 75 75 NNW 12 19 29.70 1006 10 16 0.00 0.00
5:58 pm 17:58 Mostly Cloudy 32 0.1 25 -4.1 74 74 N 13 20 29.73 1007 10 16 0.00 0.00
6:58 pm 18:58 Mostly Cloudy 32 0.1 24 -4.7 70 70 NNW 10 17 29.75 1008 10 16 0.00 0.00
7:23 pm 19:23 Mostly Cloudy 32 0 25 -4 75 75 N 14 22 30.00 1016 10 16 0.00 0.00
7:27 pm 19:27 Mostly Cloudy with Light Rain 32 0 25 -4 75 75 N 15 24 30.00 1016 10 16 0.00 0.00
7:37 pm 19:37 Mostly Cloudy with Light Snow Showers 30 -1 27 -3 86 86 N 14 22 30.03 1017 10 16 0.00 0.00
7:47 pm 19:47 Mostly Cloudy with Light Snow Showers 30 -1 27 -3 86 86 N 18 30 30.06 1018 10 16 0.00 0.00
7:52 pm 19:52 Mostly Cloudy with Light Snow Showers 28 -2 28 -2 100 100 NNW 17 28 30.09 1019 7 11 0.00 0.00
7:58 pm 19:58 Mostly Cloudy with Light Snow Showers 29 -1.7 28 -2.4 95 95 NNW 15 24 29.83 1010 5 8 0.00 0.00
8:13 pm 20:13 Mostly Cloudy with Snow Showers 28 -2 28 -2 100 100 N 16 26 30.09 1019 3 5 0.00 0.00
8:43 pm 20:43 Cloudy with Snow 28 -2 28 -2 100 100 NNW 13 20 30.15 1021 1 1 0.00 0.00
8:58 pm 20:58 Cloudy with Snow 29 -1.8 27 -2.8 93 93 NNW 16 26 29.85 1011 1 2 0.00 0.00
9:03 pm 21:03 Mostly Cloudy with Light Snow 28 -2 27 -3 93 93 NNW 15 24 30.15 1021 3 5 0.00 0.00
9:18 pm 21:18 Mostly Cloudy with Light Snow 28 -2 27 -3 93 93 NNW 15 24 30.15 1021 3 4 0.00 0.00
9:23 pm 21:23 Mostly Cloudy with Light Snow 28 -2 27 -3 93 93 NNW 13 20 30.15 1021 3 5 0.00 0.00
9:48 pm 21:48 Mostly Cloudy with Light Snow Showers 30 -1 25 -4 80 80 NW 13 20 30.15 1021 10 16 0.00 0.00
9:58 pm 21:58 Mostly Cloudy with Light Snow Showers 30 -1.2 24 -4.3 80 80 NNW 10 17 29.86 1011 10 16 0.00 0.00
10:00 pm 22:00 Mostly Cloudy 30 -1 25 -4 80 80 NNW 10 17 30.15 1021 10 16 0.00 0.00
10:10 pm 22:10 Mostly Cloudy 30 -1 25 -4 80 80 NNW 10 17 30.15 1021 10 16 0.00 0.00
10:19 pm 22:19 Mostly Cloudy with Light Snow Showers 30 -1 25 -4 80 80 N 10 17 30.15 1021 10 16 0.00 0.00
10:44 pm 22:44 Cloudy with Light Snow Showers 28 -2 27 -3 93 93 N 12 19 30.18 1022 1 2 0.00 0.00
10:49 pm 22:49 Cloudy with Snow Showers 28 -2 27 -3 93 93 NNW 10 17 30.18 1022 5 8 0.00 0.00
10:58 pm 22:58 Cloudy with Snow Showers 28 -2.1 27 -2.8 95 95 N 16 26 29.91 1013 1 1 0.01 0.25
11:03 pm 23:03 Cloudy with Snow Showers 28 -2 27 -3 93 93 NNW 12 19 30.18 1022 1 1 0.00 0.00
11:18 pm 23:18 Cloudy with Light Snow Showers 28 -2 27 -3 93 93 NNW 15 24 30.18 1022 1 2 0.00 0.00
11:33 pm 23:33 Cloudy with Light Snow 28 -2 27 -3 93 93 NNW 16 26 30.18 1022 3 4 0.00 0.00
11:38 pm 23:38 Cloudy with Light Snow 28 -2 27 -3 93 93 NNW 15 24 30.18 1022 3 4 0.00 0.00
11:58 pm 23:58 Cloudy with Light Snow 28 -2.1 25 -3.8 88 88 NNW 13 20 29.90 1013 10 16 0.00 0.00

Powered by AerisWeather